Weather observations for the past three days for
Weaverville
Imperial (Metric)
Date Time (pdt) Wind (mph) Vis. (mi.) Weather Sky Cond. Temperature (ºF) Relative Humidity Wind Chill (°F) Heat Index (°F) Pressure Precipitation (in)
Air Dwpt 6 hour altimeter (in) sea level (mb) 1 hr 3 hr 6 hr
Max. Min.
14 18:55 Calm 10.00 Fair CLR 95 50 22% 92 30.04 0.0
14 18:35 Calm 10.00 Fair CLR 95 48.2 20% 92 30.04 0.0
14 18:15 Calm 10.00 Fair CLR 95 48.2 20% 92 30.04 0.0
14 17:55 Vrbl 6 G 12 10.00 Fair CLR 96.8 51.8 22% 94 30.04 0.0
14 17:35 NE 5 10.00 Fair CLR 96.8 55.4 25% 95 30.04 0.0
14 17:15 Calm 10.00 Fair CLR 95 53.6 25% 93 30.04 0.0
14 16:55 NW 3 10.00 Fair CLR 93.2 55.4 28% 91 30.04 0.0
14 16:35 Calm 10.00 Fair CLR 93.2 55.4 28% 91 30.04 0.0
14 16:15 Vrbl 7 10.00 Fair CLR 95 55.4 26% 93 30.05 0.0
14 15:55 Calm 10.00 Fair CLR 93.2 55.4 28% 91 30.05 0.0
14 15:35 SW 6 10.00 Fair CLR 93.2 55.4 28% 91 30.06 0.0
14 15:10 Vrbl 5 10.00 Fair CLR 91.4 55.4 30% 90 30.07 0.0
14 14:55 Vrbl 3 10.00 Fair CLR 91.4 55.4 30% 90 30.07 0.0
14 14:30 Vrbl 5 10.00 Fair CLR 91.4 55.4 30% 90 30.08 0.0
14 14:15 Calm 10.00 Fair CLR 91.4 57.2 32% 90 30.08 0.0
14 13:55 Calm 10.00 Fair CLR 89.6 57.2 33% 88 30.08 0.0
14 13:35 Calm 10.00 Fair CLR 91.4 57.2 32% 90 30.08 0.0
14 13:15 Calm 10.00 Fair CLR 93.2 57.2 30% 92 30.08 0.0
14 12:55 Vrbl 3 10.00 Fair CLR 93.2 57.2 30% 92 30.08 0.0
14 12:35 N 7 10.00 Fair CLR 91.4 57.2 32% 90 30.08 0.0
14 12:15 Vrbl 5 10.00 Fair CLR 91.4 55.4 30% 90 30.07 0.0
14 11:55 Calm 10.00 Fair CLR 91.4 55.4 30% 90 30.07 0.0
14 11:35 Calm 10.00 Fair CLR 89.6 57.2 33% 88 30.07 0.0
14 11:15 Calm 10.00 Fair CLR 86 55.4 35% 85 30.08 0.0
14 10:55 S 5 10.00 Fair CLR 84.2 55.4 37% 83 30.08 0.0
14 10:35 Calm 10.00 Fair CLR 86 53.6 33% 84 30.08 0.0
14 10:15 Vrbl 3 10.00 Fair CLR 82.4 55.4 40% 82 30.08 0.0
14 09:55 Calm 10.00 Fair CLR 78.8 57.2 48% 80 30.08 0.0
14 09:35 Calm 10.00 Fair CLR 78.8 57.2 48% 80 30.08 0.0
14 09:15 Calm 10.00 Fair CLR 78.8 57.2 48% 80 30.08 0.0
14 08:55 Calm 10.00 Fair CLR 77 55.4 47% 79 30.09 0.0
14 08:35 Vrbl 3 10.00 Fair CLR 77 53.6 44% 78 30.09 0.0
14 08:15 S 5 10.00 Fair CLR 75.2 55.4 50% 78 30.08 0.0
14 07:55 Calm 10.00 Fair CLR 75.2 55.4 50% 78 30.07 0.0
14 07:35 N 5 10.00 Fair CLR 75.2 53.6 47% 78 30.07 0.0
14 07:15 N 3 10.00 Fair CLR 71.6 53.6 53% 30.08 0.0
14 06:55 Calm 10.00 Fair CLR 73.4 53.6 50% 30.07 0.0
14 06:35 Calm 10.00 Fair CLR 73.4 51.8 47% 30.06 0.0
14 06:15 Calm 10.00 Fair CLR 71.6 51.8 50% 30.05 0.0
14 05:55 NE 6 10.00 A Few Clouds FEW085 73.4 50 44% 30.05 0.0
14 05:35 Calm 10.00 Partly Cloudy FEW085 SCT120 71.6 51.8 50% 30.05 0.0
14 05:15 Calm 10.00 Fair CLR 71.6 51.8 50% 30.04 0.0
14 04:55 Calm 10.00 Fair CLR 71.6 51.8 50% 30.03 0.0
14 04:35 Calm 10.00 Fair CLR 73.4 51.8 47% 30.02 0.0
14 04:15 Calm 10.00 Fair CLR 73.4 51.8 47% 30.02 0.0
14 03:55 Calm 10.00 Fair CLR 73.4 51.8 47% 30.01 0.0
14 03:35 Calm 10.00 A Few Clouds FEW090 73.4 51.8 47% 30 0.0
14 03:15 Calm 10.00 Fair CLR 73.4 51.8 47% 30 0.0
14 02:55 Calm 10.00 Fair CLR 73.4 51.8 47% 30 0.0
14 02:35 Calm 10.00 Fair CLR 75.2 51.8 44% 78 30 0.0
14 02:15 Calm 10.00 Fair CLR 73.4 51.8 47% 30 0.0
14 01:55 Calm 10.00 Fair CLR 75.2 51.8 44% 78 30.01 0.0
14 01:35 Calm 10.00 Fair CLR 75.2 50 41% 78 30 0.0
14 01:15 Calm 10.00 Fair CLR 75.2 51.8 44% 78 30.01 0.0
14 00:55 Calm 10.00 Fair CLR 77 50 39% 78 30 0.0
14 00:35 Calm 10.00 Fair CLR 75.2 50 41% 78 30.01 0.0
14 00:15 Calm 10.00 Fair CLR 77 50 39% 78 30.01 0.0
13 23:55 Calm 10.00 Fair CLR 77 50 39% 78 30 0.0
13 23:35 Calm 10.00 Fair CLR 77 48.2 36% 78 30 0.0
13 23:15 Calm 10.00 Fair CLR 77 46.4 34% 78 30 0.0
13 22:55 Calm 10.00 Fair CLR 75.2 46.4 36% 77 30 0.0
13 22:35 Calm 10.00 Fair CLR 77 46.4 34% 78 30 0.0
13 22:15 NE 3 10.00 Fair CLR 78.8 48.2 34% 79 29.99 0.0
13 21:55 Calm 10.00 Fair CLR 78.8 50 37% 79 29.98 0.0
13 21:35 Calm 10.00 Fair CLR 80.6 50 34% 80 29.97 0.0
13 21:10 Calm 10.00 Fair CLR 82.4 51.8 35% 81 29.96 0.0
13 20:55 Calm 10.00 Fair CLR 84.2 53.6 35% 83 29.96 0.0
13 20:35 Calm 10.00 Fair CLR 86 55.4 35% 85 29.95 0.0
13 20:15 Calm 10.00 Fair CLR 87.8 53.6 31% 86 29.95 0.0
13 19:55 Calm 10.00 Fair CLR 89.6 53.6 29% 87 29.94 0.0
13 19:35 Calm 10.00 Fair CLR 93.2 51.8 24% 90 29.94 0.0
13 19:15 SW 3 10.00 Fair CLR 100.4 42.8 14% 96 29.94 0.0
13 18:55 S 7 10.00 Fair CLR 102.2 41 12% 97 29.92 0.0
13 18:35 Vrbl 3 10.00 Fair CLR 104 46.4 14% 100 29.92 0.0
13 18:15 Calm 10.00 Fair CLR 104 44.6 13% 100 29.91 0.0
13 17:55 Calm 10.00 Fair CLR 105.8 44.6 13% 101 0 0.0
13 17:30 Calm 10.00 Fair CLR 105.8 48.2 14% 102 29.91 0.0
13 17:15 Vrbl 3 G 13 10.00 Fair CLR 105.8 46.4 13% 102 29.92 0.0
13 16:55 Calm 10.00 Fair CLR 105.8 42.8 12% 101 29.92 0.0
13 16:35 Calm 10.00 Fair CLR 104 44.6 13% 100 29.92 0.0
13 16:15 Calm 10.00 Fair CLR 104 42.8 12% 99 29.93 0.0
13 15:55 Calm 10.00 Fair CLR 105.8 46.4 13% 102 29.93 0.0
13 15:35 Calm 10.00 Fair CLR 107.6 48.2 14% 104 29.93 0.0
13 15:15 Vrbl 5 10.00 Fair CLR 109.4 48.2 13% 106 29.94 0.0
13 14:55 Calm 10.00 Fair CLR 105.8 35.6 9% 100 29.94 0.0
13 14:35 Calm 10.00 Fair CLR 105.8 32 8% 100 29.95 0.0
13 14:15 S 7 10.00 Fair CLR 104 35.6 9% 98 29.95 0.0
13 13:55 SE 5 10.00 Fair CLR 105.8 32 8% 100 29.95 0.0
13 13:35 Calm 10.00 Fair CLR 104 30.2 7% 98 29.96 0.0
13 13:15 SW 5 10.00 Fair CLR 102.2 39.2 11% 97 29.96 0.0
13 12:55 Calm 10.00 Fair CLR 98.6 42.8 15% 94 29.97 0.0
13 12:35 Calm 10.00 Fair CLR 96.8 44.6 17% 93 29.97 0.0
13 12:15 Calm 10.00 Fair CLR 95 46.4 19% 91 29.98 0.0
13 11:55 Calm 10.00 Fair CLR 93.2 41 16% 89 29.98 0.0
13 11:35 Calm 10.00 Fair CLR 91.4 44.6 20% 88 29.98 0.0
13 11:15 Calm 9.00 Fair CLR 89.6 46.4 22% 86 29.99 0.0
13 10:55 Calm 9.00 Fair CLR 87.8 48.2 25% 85 29.99 0.0
13 10:35 S 3 10.00 Fair CLR 84.2 48.2 29% 82 30 0.0
13 10:10 SW 3 10.00 Fair CLR 82.4 46.4 28% 81 30.01 0.0
13 09:55 Calm 10.00 Fair CLR 80.6 44.6 28% 79 30 0.0
13 09:35 Calm 10.00 Fair CLR 77 46.4 34% 78 30.01 0.0
13 09:15 Calm 10.00 Fair CLR 75.2 46.4 36% 77 30.01 0.0
13 08:55 Calm 10.00 Fair CLR 73.4 44.6 36% 30.01 0.0
13 08:35 Calm 10.00 Fair CLR 69.8 46.4 43% 30.01 0.0
13 08:15 Calm 10.00 Fair CLR 68 50 53% 30.02 0.0
13 07:55 Calm 10.00 Fair CLR 66.2 48.2 52% 30.02 0.0
13 07:35 Calm 10.00 Fair CLR 64.4 48.2 56% 30.01 0.0
13 07:15 Calm 10.00 Fair CLR 60.8 46.4 59% 30.01 0.0
13 06:55 Calm 10.00 Fair CLR 60.8 44.6 55% 30.01 0.0
13 06:35 Calm 10.00 Fair CLR 60.8 44.6 55% 30 0.0
13 06:15 Calm 10.00 Fair CLR 60.8 44.6 55% 30 0.0
13 05:55 Calm 10.00 Fair CLR 60.8 44.6 55% 29.99 0.0
13 05:35 N 3 10.00 Fair CLR 60.8 44.6 55% 29.99 0.0
13 05:15 Calm 10.00 Fair CLR 60.8 44.6 55% 29.99 0.0
13 04:55 Calm 10.00 Fair CLR 60.8 44.6 55% 29.98 0.0
13 04:35 Calm 10.00 Fair CLR 60.8 42.8 52% 29.98 0.0
13 04:15 Calm 10.00 Fair CLR 62.6 44.6 52% 29.97 0.0
13 03:55 Calm 10.00 Fair CLR 62.6 42.8 49% 29.96 0.0
13 03:35 Calm 10.00 Fair CLR 62.6 44.6 52% 29.96 0.0
13 03:15 Calm 10.00 Fair CLR 62.6 42.8 49% 29.96 0.0
13 02:55 Calm 10.00 Fair CLR 64.4 42.8 46% 29.96 0.0
13 02:35 Calm 10.00 Fair CLR 66.2 42.8 43% 29.96 0.0
13 02:15 N 3 10.00 Fair CLR 66.2 42.8 43% 29.96 0.0
13 01:55 Calm 10.00 Fair CLR 66.2 42.8 43% 29.96 0.0
13 01:35 Calm 10.00 Fair CLR 68 42.8 40% 29.96 0.0
13 01:15 Calm 10.00 Fair CLR 68 42.8 40% 29.96 0.0
13 00:55 Calm 10.00 Fair CLR 69.8 42.8 38% 29.96 0.0
13 00:35 Calm 10.00 Fair CLR 69.8 42.8 38% 29.96 0.0
13 00:15 Calm 10.00 Fair CLR 69.8 42.8 38% 29.96 0.0
12 23:55 Calm 10.00 Fair CLR 71.6 42.8 36% 29.96 0.0
12 23:35 Calm 10.00 Fair CLR 71.6 42.8 36% 29.95 0.0
12 23:15 N 3 10.00 Fair CLR 73.4 41 31% 29.95 0.0
12 22:55 Calm 10.00 Fair CLR 73.4 41 31% 29.95 0.0
12 22:35 Calm 10.00 Fair CLR 75.2 42.8 31% 77 29.95 0.0
12 22:15 Calm 10.00 Fair CLR 75.2 42.8 31% 77 29.94 0.0
12 21:50 Calm 10.00 Fair CLR 77 42.8 30% 78 29.93 0.0
12 21:35 Calm 10.00 Fair CLR 77 44.6 32% 78 29.92 0.0
12 21:15 Calm 10.00 Fair CLR 80.6 44.6 28% 79 29.91 0.0
12 20:55 Vrbl 5 10.00 Fair CLR 82.4 46.4 28% 81 29.91 0.0
12 20:35 N 3 10.00 Fair CLR 87.8 44.6 22% 85 29.9 0.0
12 20:15 N 5 10.00 Fair CLR 89.6 42.8 20% 86 29.9 0.0
12 19:55 Vrbl 3 10.00 Fair CLR 95 50 22% 92 29.9 0.0
12 19:35 Calm 10.00 Fair CLR 102.2 32 9% 97 29.89 0.0
12 19:15 Vrbl 7 10.00 Fair CLR 104 33.8 9% 98 29.88 0.0
12 18:55 Vrbl 5 G 12 10.00 Fair CLR 104 28.4 7% 98 29.88 0.0
12 18:25 SW 9 G 16 10.00 Fair CLR 105.8 24.8 6% 99 29.87 0.0
12 18:15 SW 8 10.00 Fair CLR 105.8 24.8 6% 99 29.87 0.0
12 17:55 SW 12 10.00 Fair CLR 107.6 23 5% 100 29.88 0.0
12 17:35 Vrbl 7 10.00 Fair CLR 107.6 23 5% 100 29.88 0.0
12 17:15 S 12 10.00 Fair CLR 107.6 24.8 5% 100 29.88 0.0
12 16:55 Vrbl 5 10.00 Fair CLR 105.8 39.2 10% 100 29.88 0.0
12 16:35 Calm 10.00 Fair CLR 105.8 41 11% 101 29.89 0.0
12 16:15 Vrbl 6 10.00 Fair CLR 105.8 39.2 10% 100 29.89 0.0
12 15:55 Vrbl 7 10.00 Fair CLR 105.8 41 11% 101 29.9 0.0
12 15:35 SW 7 10.00 Fair CLR 105.8 39.2 10% 100 29.91 0.0
12 15:15 Calm 10.00 Fair CLR 105.8 41 11% 101 29.91 0.0
12 14:55 Vrbl 6 G 14 10.00 Fair CLR 105.8 39.2 10% 100 29.92 0.0
12 14:35 Vrbl 5 10.00 Fair CLR 105.8 41 11% 101 29.92 0.0
12 14:15 Vrbl 6 G 13 10.00 Fair CLR 104 39.2 11% 99 29.92 0.0
12 13:55 Calm 10.00 Fair CLR 102.2 37.4 11% 97 29.92 0.0
12 13:30 S 6 10.00 Fair CLR 102.2 42.8 13% 98 29.93 0.0
12 13:15 SW 6 10.00 Fair CLR 100.4 42.8 14% 96 29.94 0.0
12 12:55 Vrbl 5 10.00 Fair CLR 100.4 46.4 16% 97 29.94 0.0
12 12:35 Calm 10.00 Fair CLR 98.6 51.8 21% 96 29.95 0.0
12 12:15 Vrbl 3 10.00 Fair CLR 96.8 53.6 23% 95 29.96 0.0
12 11:55 Calm 10.00 Fair CLR 95 53.6 25% 93 29.96 0.0
12 11:35 Calm 10.00 Fair CLR 91.4 53.6 28% 89 29.97 0.0
12 11:15 Calm 9.00 Fair CLR 89.6 53.6 29% 87 29.97 0.0
12 10:55 S 5 10.00 Fair CLR 87.8 53.6 31% 86 29.98 0.0
12 10:35 SW 5 10.00 Fair CLR 86 53.6 33% 84 29.98 0.0
12 10:15 Calm 10.00 Fair CLR 84.2 51.8 33% 82 29.99 0.0
12 09:55 Calm 10.00 Fair CLR 82.4 51.8 35% 81 29.99 0.0
12 09:35 Calm 10.00 Fair CLR 78.8 51.8 39% 79 29.99 0.0
12 09:15 Calm 10.00 Fair CLR 77 51.8 42% 78 30 0.0
12 08:55 Calm 10.00 Fair CLR 75.2 51.8 44% 78 30 0.0
12 08:35 Calm 10.00 Fair CLR 73.4 51.8 47% 30 0.0
12 08:15 Calm 10.00 Fair CLR 69.8 51.8 53% 30 0.0
12 07:55 Calm 10.00 Fair CLR 68 53.6 60% 30 0.0
12 07:35 Calm 10.00 Fair CLR 66.2 51.8 60% 30 0.0
12 07:15 Calm 10.00 Fair CLR 62.6 51.8 68% 30 0.0
12 06:55 Calm 10.00 Fair CLR 60.8 50 68% 30 0.0
12 06:35 Calm 10.00 Fair CLR 60.8 50 68% 29.99 0.0
12 06:15 Calm 10.00 Fair CLR 60.8 50 68% 29.99 0.0
12 05:55 Calm 10.00 Fair CLR 60.8 50 68% 29.98 0.0
12 05:35 Calm 10.00 Fair CLR 60.8 50 68% 29.98 0.0
12 05:15 Calm 10.00 Fair CLR 62.6 50 64% 29.98 0.0
12 04:55 Calm 10.00 Fair CLR 62.6 50 64% 29.98 0.0
12 04:35 Calm 10.00 Fair CLR 62.6 50 64% 29.97 0.0
12 04:15 Calm 10.00 Fair CLR 62.6 50 64% 29.97 0.0
12 03:55 Calm 10.00 Fair CLR 64.4 50 60% 29.97 0.0
12 03:35 Calm 10.00 Fair CLR 64.4 50 60% 29.97 0.0
12 03:15 Calm 10.00 Fair CLR 66.2 50 56% 29.97 0.0
12 02:55 Calm 10.00 Fair CLR 66.2 50 56% 29.97 0.0
12 02:35 Calm 10.00 Fair CLR 66.2 50 56% 29.97 0.0
12 02:15 Calm 10.00 Fair CLR 68 50 53% 29.98 0.0
12 01:55 Calm 10.00 Fair CLR 68 48.2 49% 29.98 0.0
12 01:35 Calm 10.00 Fair CLR 69.8 50 50% 29.97 0.0
12 01:15 Calm 10.00 Fair CLR 69.8 48.2 46% 29.97 0.0
12 00:55 Calm 10.00 Fair CLR 69.8 48.2 46% 29.97 0.0
12 00:35 Calm 10.00 Fair CLR 71.6 48.2 44% 29.97 0.0
12 00:15 N 3 10.00 Fair CLR 71.6 50 47% 29.97 0.0
11 23:55 Calm 10.00 Fair CLR 71.6 50 47% 29.96 0.0
11 23:35 NE 5 10.00 Fair CLR 73.4 50 44% 29.96 0.0
11 23:15 NE 3 10.00 Fair CLR 75.2 50 41% 78 29.96 0.0
11 22:55 NE 3 10.00 Fair CLR 75.2 50 41% 78 29.95 0.0
11 22:30 NE 3 10.00 Fair CLR 77 51.8 42% 78 29.95 0.0
11 22:15 Calm 10.00 Fair CLR 77 51.8 42% 78 29.95 0.0
11 21:55 Calm 10.00 Fair CLR 78.8 51.8 39% 79 29.94 0.0
11 21:35 Calm 10.00 Fair CLR 80.6 53.6 39% 80 29.94 0.0
11 21:15 N 3 10.00 Fair CLR 82.4 55.4 40% 82 29.93 0.0
11 20:55 Calm 10.00 Fair CLR 84.2 55.4 37% 83 29.92 0.0
11 20:35 Vrbl 5 10.00 Fair CLR 91.4 51.8 26% 89 29.92 0.0
11 20:10 Vrbl 3 10.00 Fair CLR 96.8 46.4 18% 93 29.91 0.0
11 19:55 W 5 10.00 Fair CLR 98.6 46.4 17% 95 29.91 0.0
11 19:35 Calm 10.00 Fair CLR 100.4 46.4 16% 97 29.9 0.0
11 19:15 Vrbl 3 10.00 Fair CLR 100.4 44.6 15% 96 29.9 0.0
Date Time (pdt) Wind (mph) Vis. (mi.) Weather Sky Cond. Air Dwpt Max. Min. Relative Humidity Wind Chill (°F) Heat Index (°F) altimeter (in) sea level (mb) 1 hr 3 hr 6 hr
6 hour
Temperature (ºF) Pressure Precipitation (in)